| time (UTC) | temp F | wind direction | speed knots | gust knots | rain 1hr in | rain 24hr in | rain mn in | humidity % | barometer mb |
| 20260905043029 | 54 | 13 | 0.0 | 0.0 | 0.00 | 0.00 | 0.00 | 71 | 1012.5 |
| 20260905041527 | 54 | 13 | 0.0 | 0.0 | 0.00 | 0.00 | 0.00 | 70 | 1012.4 |
| 20260905040032 | 55 | 13 | 0.0 | 0.0 | 0.00 | 0.00 | 0.00 | 71 | 1012.3 |
| 20260905034529 | 54 | 13 | 0.0 | 0.0 | 0.00 | 0.00 | 0.00 | 70 | 1012.1 |
| 20260905033022 | 54 | 13 | 0.0 | 0.0 | 0.00 | 0.00 | 0.00 | 68 | 1011.9 |
| 20260905031528 | 54 | 13 | 0.0 | 0.0 | 0.00 | 0.00 | 0.00 | 67 | 1011.8 |
| 20260905030028 | 55 | 13 | 0.0 | 0.0 | 0.00 | 0.00 | 0.00 | 65 | 1011.6 |
| 20260905024517 | 56 | 13 | 0.0 | 0.0 | 0.00 | 0.00 | 0.00 | 62 | 1011.5 |
| 20260905023015 | 57 | 13 | 0.0 | 0.0 | 0.00 | 0.00 | 0.00 | 59 | 1011.4 |
| 20260905021521 | 59 | 13 | 0.0 | 0.0 | 0.00 | 0.00 | 0.00 | 56 | 1011.4 |
| 20260905020022 | 61 | 13 | 0.0 | 0.9 | 0.00 | 0.00 | 0.00 | 52 | 1011.3 |
| 20260905014515 | 62 | 15 | 0.0 | 4.3 | 0.00 | 0.00 | 0.00 | 49 | 1011.3 |
| 20260905013022 | 63 | 60 | 0.0 | 3.5 | 0.00 | 0.00 | 0.00 | 50 | 1011.2 |
| 20260905011510 | 64 | 118 | 0.0 | 3.5 | 0.00 | 0.00 | 0.00 | 48 | 1011.1 |
| 20260905010010 | 65 | 3 | 0.0 | 2.6 | 0.00 | 0.00 | 0.00 | 46 | 1010.9 |
| 20260905004513 | 65 | 115 | 0.0 | 3.5 | 0.00 | 0.00 | 0.00 | 46 | 1011.1 |
| 20260905003010 | 66 | 146 | 0.0 | 5.2 | 0.00 | 0.00 | 0.00 | 44 | 1010.9 |
| 20260905001508 | 66 | 308 | 0.0 | 4.3 | 0.00 | 0.00 | 0.00 | 41 | 1010.9 |
| 20260905000007 | 66 | 97 | 0.0 | 3.5 | 0.00 | 0.00 | 0.00 | 39 | 1011.0 |
| 20260904234506 | 67 | 358 | 0.9 | 5.2 | 0.00 | 0.00 | 0.00 | 41 | 1010.9 |
| 20260904233003 | 67 | 11 | 0.9 | 4.3 | 0.00 | 0.00 | 0.00 | 40 | 1011.0 |
| 20260904231502 | 68 | 90 | 1.7 | 7.8 | 0.00 | 0.00 | 0.00 | 43 | 1010.8 |
| 20260904230100 | 69 | 53 | 0.9 | 5.2 | 0.00 | 0.00 | 0.00 | 45 | 1010.9 |
| 20260904224559 | 68 | 350 | 0.0 | 6.1 | 0.00 | 0.00 | 0.00 | 49 | 1011.0 |
| 20260904223056 | 69 | 332 | 2.6 | 8.7 | 0.00 | 0.00 | 0.00 | 50 | 1011.0 |
| 20260904221557 | 68 | 152 | 1.7 | 7.8 | 0.00 | 0.00 | 0.00 | 53 | 1011.2 |
| 20260904220056 | 68 | 358 | 0.9 | 6.1 | 0.00 | 0.00 | 0.00 | 53 | 1011.1 |
| 20260904214552 | 70 | 20 | 0.9 | 4.3 | 0.00 | 0.00 | 0.00 | 51 | 1011.0 |
| 20260904213048 | 69 | 103 | 0.9 | 6.1 | 0.00 | 0.00 | 0.00 | 53 | 1011.0 |
| 20260904211542 | 66 | 111 | 0.9 | 8.7 | 0.00 | 0.00 | 0.00 | 58 | 1011.1 |
| 20260904210045 | 66 | 70 | 0.9 | 7.8 | 0.00 | 0.00 | 0.00 | 59 | 1011.0 |
| 20260904204541 | 66 | 51 | 0.9 | 7.0 | 0.00 | 0.00 | 0.00 | 61 | 1011.0 |
| 20260904203036 | 65 | 95 | 0.9 | 5.2 | 0.00 | 0.00 | 0.00 | 65 | 1011.0 |
| 20260904201532 | 64 | 98 | 0.9 | 5.2 | 0.00 | 0.00 | 0.00 | 67 | 1011.1 |
| 20260904200030 | 63 | 128 | 1.7 | 5.2 | 0.00 | 0.00 | 0.00 | 69 | 1011.0 |
| 20260904194527 | 63 | 99 | 0.9 | 7.0 | 0.00 | 0.00 | 0.00 | 71 | 1011.0 |
| 20260904193027 | 63 | 96 | 0.9 | 5.2 | 0.00 | 0.00 | 0.00 | 72 | 1011.1 |
| 20260904191522 | 62 | 82 | 0.0 | 3.5 | 0.00 | 0.00 | 0.00 | 75 | 1011.1 |
| 20260904190016 | 60 | 103 | 0.0 | 6.1 | 0.00 | 0.00 | 0.00 | 79 | 1011.2 |
| 20260904184513 | 59 | 6 | 0.0 | 2.6 | 0.00 | 0.00 | 0.00 | 81 | 1011.2 |
| 20260904183010 | 58 | 346 | 0.0 | 1.7 | 0.00 | 0.00 | 0.00 | 83 | 1011.2 |
| 20260904181526 | 58 | 306 | 0.0 | 1.7 | 0.00 | 0.00 | 0.00 | 83 | 1011.1 |
| 20260904180008 | 58 | 118 | 0.0 | 1.7 | 0.00 | 0.00 | 0.00 | 83 | 1011.1 |
| 20260904174505 | 58 | 103 | 0.9 | 3.5 | 0.00 | 0.00 | 0.00 | 83 | 1011.0 |
| 20260904173001 | 57 | 70 | 0.0 | 2.6 | 0.00 | 0.00 | 0.00 | 84 | 1010.9 |
| 20260904171619 | 57 | 74 | 0.0 | 2.6 | 0.00 | 0.00 | 0.00 | 84 | 1010.8 |
| 20260904170056 | 57 | 102 | 0.0 | 0.9 | 0.00 | 0.00 | 0.00 | 84 | 1010.6 |
| 20260904164556 | 56 | 85 | 0.0 | 1.7 | 0.00 | 0.00 | 0.00 | 84 | 1010.6 |
| 20260904163054 | 55 | 324 | 0.0 | 0.0 | 0.00 | 0.00 | 0.00 | 84 | 1010.6 |
| 20260904161552 | 55 | 324 | 0.0 | 1.7 | 0.00 | 0.00 | 0.00 | 84 | 1010.3 |
| 20260904160052 | 56 | 96 | 0.0 | 1.7 | 0.00 | 0.00 | 0.00 | 84 | 1010.4 |
| 20260904154555 | 56 | 84 | 0.0 | 2.6 | 0.00 | 0.00 | 0.00 | 84 | 1010.4 |
| 20260904153051 | 56 | 94 | 0.0 | 1.7 | 0.00 | 0.00 | 0.00 | 84 | 1010.3 |
| 20260904151549 | 56 | 102 | 0.0 | 0.9 | 0.00 | 0.00 | 0.00 | 84 | 1010.3 |
| 20260904150048 | 56 | 65 | 0.0 | 0.9 | 0.00 | 0.00 | 0.00 | 84 | 1010.4 |
| 20260904144546 | 56 | 336 | 0.0 | 0.0 | 0.00 | 0.00 | 0.00 | 84 | 1010.2 |
| 20260904143050 | 56 | 336 | 0.0 | 0.0 | 0.00 | 0.00 | 0.00 | 84 | 1010.1 |
| 20260904141543 | 55 | 336 | 0.0 | 0.0 | 0.00 | 0.00 | 0.00 | 84 | 1010.1 |
| 20260904140046 | 55 | 336 | 0.0 | 0.9 | 0.00 | 0.00 | 0.00 | 84 | 1009.9 |
| 20260904134545 | 55 | 336 | 0.0 | 0.9 | 0.00 | 0.00 | 0.00 | 84 | 1009.8 |
| 20260904133038 | 55 | 336 | 0.0 | 0.9 | 0.00 | 0.00 | 0.00 | 84 | 1009.7 |
| 20260904131537 | 55 | 336 | 0.0 | 0.0 | 0.00 | 0.00 | 0.00 | 84 | 1009.6 |
| 20260904130034 | 55 | 336 | 0.0 | 0.0 | 0.00 | 0.00 | 0.00 | 84 | 1009.5 |
| 20260904124533 | 55 | 336 | 0.0 | 0.0 | 0.00 | 0.00 | 0.00 | 84 | 1009.3 |
| 20260904123034 | 55 | 336 | 0.0 | 0.0 | 0.00 | 0.00 | 0.00 | 84 | 1009.4 |
| 20260904121531 | 56 | 336 | 0.0 | 0.0 | 0.00 | 0.00 | 0.00 | 84 | 1009.4 |
| 20260904120039 | 56 | 336 | 0.0 | 0.0 | 0.00 | 0.00 | 0.00 | 84 | 1009.4 |
| 20260904114528 | 56 | 336 | 0.0 | 0.0 | 0.00 | 0.00 | 0.00 | 83 | 1009.4 |
| 20260904113026 | 56 | 336 | 0.0 | 0.0 | 0.00 | 0.00 | 0.00 | 83 | 1009.4 |
| 20260904111525 | 56 | 336 | 0.0 | 0.0 | 0.00 | 0.00 | 0.00 | 83 | 1009.4 |
| 20260904110025 | 56 | 336 | 0.0 | 0.0 | 0.00 | 0.00 | 0.00 | 83 | 1009.4 |
| 20260904104535 | 56 | 336 | 0.0 | 0.0 | 0.00 | 0.00 | 0.00 | 83 | 1009.3 |
| 20260904103025 | 56 | 336 | 0.0 | 0.0 | 0.00 | 0.00 | 0.00 | 83 | 1009.3 |
| 20260904101521 | 56 | 336 | 0.0 | 0.0 | 0.00 | 0.00 | 0.00 | 83 | 1009.4 |
| 20260904100030 | 56 | 335 | 0.0 | 0.0 | 0.00 | 0.00 | 0.00 | 83 | 1009.3 |
| 20260904094525 | 56 | 336 | 0.0 | 0.0 | 0.00 | 0.00 | 0.00 | 83 | 1009.2 |
| 20260904093019 | 56 | 336 | 0.0 | 0.0 | 0.00 | 0.00 | 0.00 | 83 | 1009.3 |
| 20260904091517 | 56 | 336 | 0.0 | 0.0 | 0.00 | 0.00 | 0.00 | 83 | 1009.3 |
| 20260904090019 | 56 | 336 | 0.0 | 0.0 | 0.00 | 0.00 | 0.00 | 83 | 1009.3 |
| 20260904084515 | 56 | 336 | 0.0 | 0.0 | 0.00 | 0.00 | 0.00 | 83 | 1009.4 |
| 20260904083017 | 56 | 336 | 0.0 | 0.0 | 0.00 | 0.00 | 0.00 | 83 | 1009.6 |
| 20260904081511 | 56 | 336 | 0.0 | 0.9 | 0.00 | 0.00 | 0.00 | 83 | 1009.6 |
| 20260904080012 | 56 | 315 | 0.0 | 0.0 | 0.00 | 0.00 | 0.00 | 83 | 1009.6 |
| 20260904074510 | 56 | 338 | 0.0 | 0.9 | 0.00 | 0.00 | 0.00 | 80 | 1009.6 |
| 20260904073007 | 56 | 338 | 0.0 | 0.0 | 0.00 | 0.00 | 0.00 | 80 | 1009.5 |
| 20260904071503 | 56 | 338 | 0.0 | 0.0 | 0.00 | 0.00 | 0.00 | 80 | 1009.5 |
| 20260904070101 | 56 | 338 | 0.0 | 0.0 | 0.00 | 0.00 | 0.00 | 79 | 1009.7 |
| 20260904064600 | 56 | 338 | 0.0 | 0.0 | 0.00 | 0.00 | 0.00 | 79 | 1009.8 |
| 20260904063059 | 57 | 338 | 0.0 | 0.0 | 0.00 | 0.00 | 0.00 | 79 | 1009.8 |
| 20260904061558 | 57 | 338 | 0.0 | 0.0 | 0.00 | 0.00 | 0.00 | 79 | 1009.8 |
| 20260904060057 | 57 | 338 | 0.0 | 0.0 | 0.00 | 0.00 | 0.00 | 78 | 1009.9 |
| 20260904054557 | 57 | 338 | 0.0 | 0.9 | 0.00 | 0.00 | 0.00 | 78 | 1010.1 |
| 20260904053102 | 57 | 338 | 0.0 | 0.0 | 0.00 | 0.00 | 0.00 | 79 | 1010.1 |
| 20260904051555 | 57 | 338 | 0.0 | 0.0 | 0.00 | 0.00 | 0.00 | 79 | 1010.4 |
| 20260904050053 | 57 | 338 | 0.0 | 0.0 | 0.00 | 0.00 | 0.00 | 79 | 1010.5 |
| 20260904044555 | 57 | 338 | 0.0 | 0.0 | 0.00 | 0.00 | 0.00 | 79 | 1010.5 |